[[{"header":{"parameterUnit":"m.s-1","parameterCategory":2,"la1":30.2991,"la2":30.254,"lo1":-89.0895,"lo2":-89.0444,"dy":0.0017,"dx":0.0017,"nx":28,"ny":28,"refTime":"2024-07-11T21:00:00:Z","depth":"0","parameterNumber":2,"parameterNumberName":"U-component_of_CURRENTS"},"data":[0,0,0,0,0,0,0,0,0,0,0,0,0,0,0,0,0,0,0,0,0,0,0,0,0,0,0,0,0,0,0,0,0,0,0,0,0,0,0,0,0,0,0,0,0,0,0,0,0,0,0,0,0,0,0,0,0,0,0.1637,0.1637,0,0.1619,0.1619,0.1618,0.1563,0.1562,0.1561,0.156,0.1463,0.1462,0.146,0,0,0,0,0,0,0,0,0,0,0,0,0,0.1595,0.1596,0.1637,0.1637,0.1637,0.1619,0.1619,0.1618,0.1563,0.1562,0.156,0.1559,0.1464,0.1462,0.146,0,0,0,0,0,0,0,0,0,0,0,0,0,0.1597,0.1596,0.1637,0.1608,0.1605,0.1619,0.1619,0.1618,0.1563,0.1562,0.156,0.1558,0.1464,0.1462,0.146,0.1478,0,0,0.1452,0.1451,0,0,0,0,0,0,0,0,0.1597,0.1599,0.1612,0.161,0.1607,0.1593,0.1569,0.1568,0.1564,0.1578,0.156,0.1558,0.1501,0.1496,0.1495,0.1473,0.1469,0.1452,0.1451,0.145,0.1449,0,0,0,0,0,0,0,0.1597,0.1599,0.1628,0.1612,0.1609,0.1587,0.1585,0.1568,0.1546,0.1576,0.1573,0.1574,0.1499,0.1498,0.1492,0.1468,0.1452,0.145,0.1449,0.1448,0.155,0.1554,0,0,0,0,0,0,0.1606,0.1599,0.1629,0.1628,0.16,0.1589,0.1587,0.1598,0.1548,0.154,0.1575,0.1571,0.1502,0.1495,0.1488,0.1547,0.145,0.1448,0.1446,0.1546,0.1551,0.1555,0,0,0,0,0,0,0.1606,0.1609,0.1629,0.1613,0.1614,0.1592,0.1604,0.1598,0.1597,0.1548,0.1538,0.1579,0.1501,0.1492,0.1508,0.1541,0.1447,0.1445,0.1541,0.1547,0.1553,0.1638,0,0,0,0,0,0,0.1605,0.161,0.1619,0.1615,0.1616,0.1651,0.1605,0.1599,0.1601,0.1595,0.1548,0.1538,0.1499,0.1513,0.1506,0.1536,0.1443,0.1536,0.1544,0.1551,0.163,0.1646,0.166,0,0,0,0,0,0.1603,0.162,0.162,0.1623,0.163,0.1653,0.1652,0.1628,0.1603,0.1617,0.1602,0.1539,0.1557,0.1514,0.1505,0.1535,0.1532,0.1541,0.155,0.1623,0.1643,0.1659,0,0,0,0,0,0,0.1603,0.1617,0.1615,0.1635,0.1652,0.1644,0.1649,0.1639,0.1638,0.163,0.1579,0.157,0.1604,0.1575,0.1528,0.1598,0.1539,0.1547,0.1598,0.1616,0.1631,0.1609,0.1441,0,0,0,0,0,0.1612,0.1628,0.1644,0.166,0.1671,0.1665,0.1668,0.1663,0.1661,0.1658,0.1634,0.1626,0.1639,0.1629,0.1635,0.1657,0.165,0.1682,0.1697,0.1709,0.1694,0.1743,0.1759,0.1585,0.1585,0.1585,0,0,0.1614,0.1625,0.1632,0.1662,0.1666,0.1685,0.1662,0.1682,0.1696,0.1649,0.1665,0.1676,0.1664,0.1703,0.1714,0.1673,0.1766,0.1721,0.1731,0.1708,0.1754,0.177,0.1785,0.1592,0.1591,0.159,0,0,0.1625,0.1643,0.1658,0.1676,0.1699,0.1706,0.1718,0.1732,0.1739,0.1771,0.1756,0.1795,0.179,0.1802,0.1802,0.1908,0.1854,0.1917,0.1951,0.2,0.2013,0.2024,0.2067,0.2081,0.1911,0.1911,0.1911,0,0.1624,0.1646,0.1668,0.1687,0.1696,0.1718,0.1735,0.1758,0.1779,0.1792,0.1787,0.1841,0.1837,0.1883,0.193,0.1935,0.195,0.1871,0.2015,0.2026,0.2035,0.2076,0.209,0.1916,0.1916,0.1915,0.1915,0,0.1645,0.1661,0.1675,0.1705,0.1727,0.1751,0.1785,0.1817,0.1832,0.1849,0.1914,0.1943,0.196,0.1996,0.1986,0.2068,0.2054,0.2034,0.1953,0.2057,0.2095,0.2109,0.1924,0.1922,0.192,0.1919,0,0,0.1636,0.1678,0.168,0.169,0.1736,0.1754,0.18,0.1844,0.1863,0.1922,0.1953,0.203,0.2045,0.2052,0.2071,0.2124,0.2233,0.2109,0.2109,0.2123,0.2342,0.2358,0.2373,0.2232,0.2235,0.2237,0.2349,0,0.164,0.1665,0.1693,0.1719,0.1734,0.1772,0.181,0.1856,0.1895,0.1941,0.2004,0.2051,0.2065,0.209,0.2149,0.2207,0.2268,0.2204,0.2261,0.2263,0.2241,0.2389,0.24,0.2502,0.2361,0.2364,0.2365,0,0.1642,0.166,0.1678,0.1717,0.1728,0.1749,0.18,0.1837,0.1912,0.1948,0.2007,0.2051,0.2146,0.2148,0.2285,0.224,0.2297,0.2348,0.2352,0.2335,0.2304,0.2374,0.2531,0.2426,0.2385,0.2383,0.2382,0,0.1605,0.1646,0.1654,0.1666,0.172,0.1735,0.1765,0.1829,0.1862,0.1949,0.1985,0.2087,0.2142,0.2237,0.2341,0.2318,0.2488,0.2461,0.2532,0.2533,0.2535,0.2532,0.2567,0.2565,0.2565,0.2565,0.2564,0,0.1588,0.1596,0.1633,0.1634,0.1653,0.17,0.1727,0.1774,0.1843,0.189,0.1976,0.2039,0.2169,0.2274,0.2359,0.2496,0.2502,0.2566,0.2576,0.2571,0.2571,0.2469,0.239,0.2569,0.2568,0.2567,0.2566,0,0.1543,0.1568,0.1575,0.1617,0.1629,0.1635,0.1688,0.1716,0.1787,0.185,0.1885,0.2018,0.2169,0.2297,0.2463,0.2519,0.2604,0.2687,0.2672,0.2679,0.2638,0.2564,0.2559,0.2536,0.2792,0.2793,0.2794,0,0.1524,0.152,0.1541,0.1541,0.1555,0.1576,0.1599,0.1674,0.1711,0.1841,0.1877,0.2035,0.2149,0.2396,0.2562,0.2737,0.2648,0.2821,0.2786,0.2664,0.2589,0.2485,0.2458,0.2838,0.2839,0.284,0.2841,0,0.1478,0.1477,0.1478,0.1473,0.1484,0.1512,0.155,0.1574,0.1679,0.1751,0.1868,0.1968,0.2228,0.2418,0.2645,0.2767,0.2716,0.2847,0.2734,0.2649,0.2525,0.2498,0.2717,0.2851,0.285,0.2849,0.2848,0.2848,0.143,0.141,0.1397,0.1395,0.1411,0.1438,0.1448,0.1519,0.1582,0.169,0.1816,0.1961,0.2246,0.258,0.2701,0.2862,0.2778,0.2828,0.2759,0.2673,0.2616,0.2854,0.2981,0.298,0.298,0.298,0.298,0,0.1352,0.1334,0.1325,0.1314,0.1314,0.1356,0.141,0.1432,0.1497,0.1631,0.1743,0.2016,0.2257,0.2511,0.2773,0.2755,0.2738,0.2691,0.2536,0.2525,0.2769,0.2734,0.2795,0.2795,0.2796,0.2796,0.2796,0.2796,0.1303,0.1254,0.1251,0.1216,0.1224,0.123,0.1258,0.1316,0.1403,0.1541,0.1678,0.1812,0.2086,0.2403,0.2549,0.2573,0.2421,0.237,0.2302,0.2436,0.2441,0.2447,0.2396,0.2386,0.2385,0.2068,0.2065,0.2062]},{"header":{"parameterUnit":"m.s-1","parameterCategory":2,"la1":30.2991,"la2":30.254,"lo1":-89.0895,"lo2":-89.0444,"dy":0.0017,"dx":0.0017,"nx":28,"ny":28,"refTime":"2024-07-11T21:00:00:Z","depth":"0","parameterNumber":3,"parameterNumberName":"V-component_of_CURRENTS"},"data":[0,0,0,0,0,0,0,0,0,0,0,0,0,0,0,0,0,0,0,0,0,0,0,0,0,0,0,0,0,0,0,0,0,0,0,0,0,0,0,0,0,0,0,0,0,0,0,0,0,0,0,0,0,0,0,0,0,0,-0.0383,-0.0383,0,-0.0406,-0.0406,-0.0407,-0.0461,-0.0462,-0.0463,-0.0463,-0.047,-0.0469,-0.0469,0,0,0,0,0,0,0,0,0,0,0,0,0,-0.0375,-0.0375,-0.0383,-0.0383,-0.0383,-0.0406,-0.0406,-0.0407,-0.046,-0.0462,-0.0463,-0.0464,-0.047,-0.0469,-0.0468,0,0,0,0,0,0,0,0,0,0,0,0,0,-0.0387,-0.0375,-0.0383,-0.0412,-0.0415,-0.0406,-0.0406,-0.0407,-0.046,-0.0462,-0.0463,-0.0465,-0.0471,-0.0469,-0.0468,-0.0431,0,0,-0.0465,-0.0464,0,0,0,0,0,0,0,0,-0.0386,-0.0387,-0.0407,-0.041,-0.0413,-0.0431,-0.0406,-0.0414,-0.046,-0.0444,-0.0464,-0.0465,-0.0453,-0.0454,-0.0457,-0.0431,-0.0431,-0.0465,-0.0464,-0.0464,-0.0463,0,0,0,0,0,0,0,-0.0385,-0.0387,-0.0393,-0.0407,-0.0411,-0.042,-0.0424,-0.0408,-0.044,-0.0445,-0.0449,-0.0449,-0.0455,-0.0458,-0.0457,-0.0431,-0.0465,-0.0464,-0.0463,-0.0463,-0.0386,-0.0385,0,0,0,0,0,0,-0.0379,-0.0386,-0.0392,-0.0394,-0.0402,-0.0419,-0.0423,-0.0424,-0.0441,-0.0445,-0.0448,-0.0452,-0.0459,-0.0458,-0.0458,-0.042,-0.0464,-0.0462,-0.0462,-0.0388,-0.0386,-0.0384,0,0,0,0,0,0,-0.0379,-0.0379,-0.0391,-0.0389,-0.0392,-0.0417,-0.0419,-0.0424,-0.0432,-0.0443,-0.0447,-0.0451,-0.046,-0.0459,-0.0443,-0.042,-0.0462,-0.0461,-0.0389,-0.0387,-0.0385,-0.034,0,0,0,0,0,0,-0.0378,-0.0379,-0.0375,-0.0389,-0.0391,-0.0387,-0.0417,-0.0423,-0.0429,-0.0434,-0.0446,-0.0448,-0.0461,-0.0445,-0.0442,-0.0419,-0.046,-0.0391,-0.0388,-0.0386,-0.0343,-0.0337,-0.0331,0,0,0,0,0,-0.0378,-0.0367,-0.0375,-0.0375,-0.0386,-0.0386,-0.0388,-0.0412,-0.0427,-0.0425,-0.0432,-0.0448,-0.0427,-0.0442,-0.044,-0.0416,-0.0392,-0.0389,-0.0386,-0.0346,-0.0338,-0.0331,0,0,0,0,0,0,-0.0364,-0.0372,-0.038,-0.0374,-0.0379,-0.0395,-0.0391,-0.0405,-0.0409,-0.0414,-0.0429,-0.0431,-0.0411,-0.0413,-0.043,-0.0386,-0.0412,-0.0408,-0.0382,-0.0375,-0.0369,-0.0366,-0.0459,0,0,0,0,0,-0.0356,-0.035,-0.036,-0.0354,-0.0354,-0.0369,-0.0371,-0.0387,-0.0393,-0.0398,-0.0402,-0.0402,-0.0392,-0.0386,-0.0381,-0.035,-0.0363,-0.0333,-0.0327,-0.0321,-0.0316,-0.0317,-0.0311,-0.0375,-0.0375,-0.0375,0,0,-0.0348,-0.0351,-0.0348,-0.035,-0.0355,-0.0344,-0.0375,-0.0375,-0.0364,-0.0393,-0.0375,-0.0381,-0.038,-0.0355,-0.0345,-0.0356,-0.0309,-0.0318,-0.0313,-0.031,-0.0313,-0.0307,-0.0302,-0.0373,-0.0373,-0.0373,0,0,-0.0326,-0.0331,-0.0318,-0.0316,-0.032,-0.0325,-0.0322,-0.0332,-0.0336,-0.0317,-0.0336,-0.0328,-0.031,-0.0308,-0.0303,-0.0256,-0.0281,-0.0251,-0.0213,-0.0214,-0.0209,-0.0205,-0.0214,-0.0212,-0.0244,-0.0244,-0.0244,0,-0.0318,-0.0302,-0.0314,-0.0299,-0.029,-0.0312,-0.0293,-0.0293,-0.0296,-0.0286,-0.0306,-0.0281,-0.0287,-0.0253,-0.0242,-0.0242,-0.0251,-0.0243,-0.0208,-0.0204,-0.02,-0.0211,-0.0208,-0.0242,-0.0242,-0.0242,-0.0243,0,-0.0286,-0.0271,-0.0261,-0.0247,-0.024,-0.0227,-0.0228,-0.0217,-0.0221,-0.0223,-0.0199,-0.021,-0.0197,-0.0193,-0.0204,-0.0173,-0.019,-0.0205,-0.023,-0.0192,-0.0205,-0.0203,-0.0238,-0.0239,-0.024,-0.0241,0,0,-0.027,-0.0244,-0.0239,-0.0219,-0.0211,-0.0198,-0.0171,-0.015,-0.0129,-0.0133,-0.0104,-0.0097,-0.0115,-0.011,-0.0124,-0.0122,-0.0111,-0.0149,-0.015,-0.0164,-0.0118,-0.0132,-0.0132,-0.0122,-0.0121,-0.0121,-0.0137,0,-0.024,-0.0197,-0.0194,-0.0147,-0.0122,-0.0123,-0.0094,-0.0079,-0.0075,-0.0051,-0.006,-0.0043,-0.0079,-0.0074,-0.0078,-0.01,-0.0103,-0.0105,-0.0147,-0.0148,-0.017,-0.0129,-0.0099,-0.0111,-0.0136,-0.0136,-0.0135,0,-0.0203,-0.0179,-0.0129,-0.0086,-0.0076,-0.0051,-0.0007,0.0013,0.0035,0.0036,0.0043,0.0028,0.0035,-0.0006,-0.0031,-0.0031,-0.0069,-0.0094,-0.0095,-0.0122,-0.0158,-0.0152,-0.0107,-0.0138,-0.0133,-0.0133,-0.0133,0,-0.0169,-0.0127,-0.0082,-0.0068,-0.0029,-0.0001,0.002,0.0045,0.0074,0.0091,0.011,0.0099,0.01,0.0058,0.0002,-0.0013,-0.0031,-0.0061,-0.011,-0.0112,-0.0101,-0.0104,-0.0096,-0.008,-0.008,-0.008,-0.008,0,-0.0126,-0.0088,-0.0061,-0.0031,0.0026,0.0035,0.0093,0.0109,0.0139,0.0185,0.0155,0.0187,0.0116,0.0096,0.0031,-0.0027,-0.0012,-0.0093,-0.011,-0.0085,-0.0085,-0.0125,-0.0165,-0.008,-0.008,-0.008,-0.008,0,-0.0081,-0.0067,-0.0009,0.0034,0.0049,0.0093,0.0145,0.0186,0.0198,0.0258,0.0268,0.026,0.0233,0.0158,0.0093,0.0016,-0.009,-0.0071,-0.0041,-0.0054,-0.0139,-0.0179,-0.03,-0.036,-0.0128,-0.0128,-0.0128,0,-0.0052,-0.0018,0.0041,0.0075,0.0099,0.0154,0.0195,0.0219,0.0261,0.0312,0.035,0.0339,0.0353,0.0245,0.0114,0.0001,-0.0087,-0.0066,-0.0091,-0.0127,-0.0184,-0.0289,-0.0338,-0.0061,-0.006,-0.006,-0.006,0,0.001,0.0031,0.0078,0.0141,0.0191,0.0248,0.0304,0.0345,0.0383,0.043,0.049,0.0508,0.0406,0.0331,0.0164,0.0061,-0.0126,-0.0066,-0.01,-0.0124,-0.024,-0.031,-0.0077,-0.0058,-0.0058,-0.0058,-0.0058,-0.0058,0.0057,0.0103,0.0158,0.022,0.0277,0.0346,0.0403,0.0456,0.0535,0.0628,0.0621,0.0686,0.0556,0.0341,0.0184,-0.0052,-0.0129,-0.0108,-0.0152,-0.0256,-0.0315,-0.0085,-0.0089,-0.0089,-0.0089,-0.009,-0.009,0,0.0114,0.0165,0.023,0.0315,0.0389,0.0396,0.0483,0.0541,0.0642,0.0736,0.0802,0.0826,0.0663,0.0442,0.0132,-0.0064,-0.0222,-0.0172,-0.0281,-0.0327,-0.0092,-0.0085,-0.009,-0.009,-0.009,-0.009,-0.009,-0.009,0.015,0.0228,0.0264,0.0399,0.0455,0.0552,0.0603,0.0683,0.0763,0.0909,0.0996,0.1045,0.0938,0.0417,0.0036,-0.0097,-0.0302,-0.037,-0.047,-0.024,-0.0237,-0.0233,-0.0234,-0.027,-0.027,-0.0703,-0.0706,-0.0709]}],[{"header":{"parameterUnit":"m.s-1","parameterCategory":2,"la1":30.2991,"la2":30.254,"lo1":-89.0895,"lo2":-89.0444,"dy":0.0017,"dx":0.0017,"nx":28,"ny":28,"refTime":"2024-07-11T21:00:00:Z","depth":"2","parameterNumber":2,"parameterNumberName":"U-component_of_CURRENTS"},"data":[0,0,0,0,0,0,0,0,0,0,0,0,0,0,0,0,0,0,0,0,0,0,0,0,0,0,0,0,0,0,0,0,0,0,0,0,0,0,0,0,0,0,0,0,0,0,0,0,0,0,0,0,0,0,0,0,0,0,0.0219,0.0219,0,0.0219,0.0219,0.0219,0.0204,0.0203,0.0203,0.0202,0.0241,0.0243,0.0244,0,0,0,0,0,0,0,0,0,0,0,0,0,0.0217,0.0217,0.0219,0.0219,0.0219,0.0219,0.0219,0.0219,0.0204,0.0203,0.0203,0.0202,0.0241,0.0242,0.0244,0,0,0,0,0,0,0,0,0,0,0,0,0,0.0218,0.0217,0.0219,0.0211,0.0211,0.0219,0.0219,0.0219,0.0204,0.0203,0.0203,0.0202,0.024,0.0242,0.0244,0.0269,0,0,0.0251,0.0252,0,0,0,0,0,0,0,0,0.0218,0.0218,0.0212,0.0212,0.0211,0.0211,0.0233,0.0238,0.0204,0.0206,0.0202,0.0202,0.0235,0.0238,0.0238,0.0271,0.0273,0.0251,0.0252,0.0253,0.0254,0,0,0,0,0,0,0,0.0218,0.0218,0.0219,0.0212,0.0212,0.0212,0.0212,0.0234,0.0225,0.0206,0.0205,0.0205,0.0235,0.0236,0.0239,0.0273,0.0251,0.0253,0.0254,0.0255,0.0334,0.0335,0,0,0,0,0,0,0.0218,0.0218,0.0219,0.0219,0.0213,0.0213,0.0212,0.0211,0.0223,0.0224,0.0206,0.0205,0.0233,0.0237,0.0241,0.0316,0.0253,0.0255,0.0256,0.0333,0.0334,0.0335,0,0,0,0,0,0,0.0218,0.0218,0.0219,0.0218,0.0218,0.0213,0.0213,0.0212,0.0222,0.0223,0.0225,0.0218,0.0233,0.0238,0.0266,0.0316,0.0256,0.0258,0.0332,0.0334,0.0335,0.0439,0,0,0,0,0,0,0.0218,0.0218,0.0227,0.0218,0.0219,0.0243,0.0213,0.0212,0.0222,0.0221,0.0234,0.0236,0.0233,0.0263,0.0268,0.0318,0.026,0.0331,0.0333,0.0334,0.0435,0.0444,0.0452,0,0,0,0,0,0.0218,0.0235,0.0227,0.0228,0.0228,0.0244,0.0246,0.0239,0.0224,0.0243,0.024,0.0236,0.0276,0.0266,0.0271,0.0323,0.033,0.0332,0.0334,0.0431,0.0442,0.0452,0,0,0,0,0,0,0.0246,0.0234,0.0226,0.024,0.0249,0.0242,0.0261,0.0249,0.0261,0.0261,0.0252,0.0255,0.0296,0.0288,0.0276,0.0345,0.0302,0.0305,0.0373,0.0384,0.0392,0.0411,0.0261,0,0,0,0,0,0.0255,0.0262,0.0255,0.0272,0.0278,0.027,0.0277,0.0273,0.0277,0.0281,0.0287,0.0292,0.0307,0.0327,0.0335,0.0383,0.0391,0.0414,0.0423,0.0431,0.0447,0.0488,0.0503,0.0342,0.0342,0.0341,0,0,0.027,0.0267,0.0271,0.0279,0.0284,0.0308,0.0274,0.0296,0.0319,0.0286,0.0328,0.0324,0.0322,0.0368,0.0387,0.0373,0.0484,0.0433,0.044,0.0452,0.0492,0.0508,0.0523,0.0343,0.0343,0.0342,0,0,0.031,0.0305,0.0325,0.0336,0.0349,0.0347,0.0357,0.0361,0.0369,0.0402,0.0381,0.0406,0.0431,0.0445,0.0453,0.0513,0.0519,0.0514,0.0592,0.0633,0.0647,0.066,0.071,0.0726,0.0529,0.0529,0.053,0,0.0333,0.0352,0.0339,0.0366,0.0384,0.0369,0.0404,0.0414,0.0428,0.045,0.0429,0.0474,0.0471,0.0533,0.055,0.0539,0.0562,0.0559,0.0648,0.066,0.0671,0.0719,0.0736,0.0535,0.0534,0.0534,0.0533,0,0.0383,0.0406,0.0426,0.0449,0.0469,0.05,0.0508,0.0535,0.0538,0.0548,0.0603,0.0599,0.063,0.0633,0.0615,0.0698,0.0689,0.0649,0.063,0.0695,0.074,0.0756,0.0542,0.054,0.0539,0.0537,0,0,0.042,0.0452,0.0463,0.0487,0.0515,0.0537,0.0587,0.063,0.0671,0.0691,0.0752,0.0776,0.0775,0.0782,0.0769,0.0806,0.0906,0.0773,0.0773,0.0838,0.1017,0.1032,0.105,0.0887,0.089,0.0892,0.1024,0,0.0469,0.0528,0.0534,0.0602,0.0633,0.0643,0.0692,0.0729,0.0756,0.0813,0.0827,0.0874,0.0832,0.0859,0.0893,0.0895,0.0949,0.0875,0.093,0.0932,0.0951,0.1069,0.0791,0.0886,0.1039,0.1041,0.1043,0,0.0521,0.0551,0.062,0.0673,0.0691,0.0732,0.0807,0.0849,0.0916,0.094,0.0995,0.0998,0.1069,0.1007,0.1087,0.1046,0.1051,0.1047,0.1051,0.1041,0.0977,0.084,0.0908,0.1069,0.1067,0.1065,0.1063,0,0.0552,0.0615,0.067,0.069,0.0748,0.0792,0.0831,0.0897,0.094,0.1032,0.1075,0.1143,0.1185,0.1209,0.1212,0.1162,0.1291,0.1214,0.1239,0.124,0.1002,0.0977,0.1283,0.1283,0.1282,0.1282,0.1281,0,0.0599,0.0647,0.0691,0.0724,0.0797,0.083,0.0917,0.0964,0.1039,0.1102,0.1147,0.1208,0.1237,0.1299,0.1283,0.134,0.1359,0.1296,0.1291,0.1032,0.101,0.1148,0.1131,0.1287,0.1286,0.1285,0.1284,0,0.063,0.0659,0.0722,0.0789,0.0814,0.087,0.0951,0.1004,0.1081,0.1167,0.1202,0.129,0.1388,0.1422,0.1477,0.1442,0.1477,0.1483,0.1194,0.1155,0.1378,0.1364,0.1537,0.1539,0.1541,0.1543,0.1544,0,0.065,0.0686,0.0761,0.0792,0.0828,0.0903,0.0947,0.1022,0.107,0.1204,0.1242,0.1378,0.1445,0.1567,0.1514,0.1543,0.1576,0.1335,0.1191,0.1435,0.1412,0.1395,0.138,0.0909,0.0905,0.0902,0.0899,0,0.0681,0.071,0.0754,0.0806,0.0858,0.0916,0.0985,0.1022,0.111,0.1185,0.1289,0.136,0.1455,0.1368,0.1427,0.1384,0.131,0.1274,0.1604,0.0908,0.0859,0.0831,0.0833,0.0869,0.0872,0.0875,0.0876,0.0877,0.0697,0.0721,0.0758,0.0811,0.0861,0.0904,0.0939,0.1001,0.1067,0.1142,0.1242,0.1257,0.1151,0.1119,0.1144,0.1157,0.1211,0.1075,0.1078,0.1085,0.1009,0.0968,0.0985,0.0989,0.0992,0.0995,0.0997,0,0.0688,0.071,0.0752,0.0795,0.0823,0.0873,0.0935,0.0941,0.0991,0.1039,0.1109,0.0872,0.0808,0.0831,0.0764,0.0787,0.0714,0.0794,0.0614,0.0637,0.066,0.0558,0.0418,0.0418,0.0419,0.042,0,0,0.0681,0.0691,0.0702,0.0726,0.0772,0.0802,0.0833,0.0844,0.0848,0.081,0.0758,0.0729,0.0679,0.049,0.0458,0.0468,0.0579,0.0457,0.0874,0.0674,0.07,0.0729,0.0589,0,0,0,0,0]},{"header":{"parameterUnit":"m.s-1","parameterCategory":2,"la1":30.2991,"la2":30.254,"lo1":-89.0895,"lo2":-89.0444,"dy":0.0017,"dx":0.0017,"nx":28,"ny":28,"refTime":"2024-07-11T21:00:00:Z","depth":"2","parameterNumber":3,"parameterNumberName":"V-component_of_CURRENTS"},"data":[0,0,0,0,0,0,0,0,0,0,0,0,0,0,0,0,0,0,0,0,0,0,0,0,0,0,0,0,0,0,0,0,0,0,0,0,0,0,0,0,0,0,0,0,0,0,0,0,0,0,0,0,0,0,0,0,0,0,0.0077,0.0076,0,-0.0026,-0.0027,-0.0028,-0.0098,-0.0099,-0.0099,-0.01,-0.0213,-0.0216,-0.0218,0,0,0,0,0,0,0,0,0,0,0,0,0,0.0174,0.0173,0.0077,0.0075,0.0074,-0.0025,-0.0027,-0.0028,-0.0098,-0.0099,-0.0099,-0.01,-0.0212,-0.0215,-0.0218,0,0,0,0,0,0,0,0,0,0,0,0,0,0.0108,0.0172,0.0077,0.0027,0.0022,-0.0025,-0.0027,-0.0029,-0.0098,-0.0099,-0.0099,-0.01,-0.0211,-0.0215,-0.0219,-0.0226,0,0,-0.023,-0.0232,0,0,0,0,0,0,0,0,0.0112,0.0104,0.0036,0.0031,0.0024,-0.005,-0.0034,-0.0095,-0.0098,-0.0052,-0.01,-0.01,-0.0159,-0.0167,-0.0184,-0.0232,-0.0237,-0.0231,-0.0233,-0.0235,-0.0236,0,0,0,0,0,0,0,0.0116,0.0108,0.0036,0.0035,0.0028,-0.0003,-0.0013,-0.0046,-0.01,-0.0056,-0.0062,-0.0073,-0.0162,-0.0181,-0.0188,-0.0238,-0.0231,-0.0234,-0.0236,-0.0238,-0.0371,-0.0372,0,0,0,0,0,0,0.0132,0.0113,0.004,0.0033,0.0067,-0.0004,-0.0015,-0.0025,-0.01,-0.0112,-0.0072,-0.0076,-0.0174,-0.0183,-0.0192,-0.0247,-0.0235,-0.0238,-0.024,-0.037,-0.0372,-0.0373,0,0,0,0,0,0,0.0134,0.0126,0.0044,0.007,0.0058,-0.0004,-0.0016,-0.0027,-0.0066,-0.0112,-0.0124,-0.0102,-0.0175,-0.0187,-0.0247,-0.025,-0.024,-0.0243,-0.0369,-0.037,-0.0372,-0.0329,0,0,0,0,0,0,0.0137,0.0128,0.0116,0.0072,0.0057,0.0012,-0.0015,-0.0028,-0.007,-0.0077,-0.0141,-0.0151,-0.0176,-0.0241,-0.0251,-0.0255,-0.0246,-0.0367,-0.0369,-0.0372,-0.0329,-0.033,-0.033,0,0,0,0,0,0.0141,0.0133,0.0116,0.0107,0.0046,0.0012,0.0002,-0.0045,-0.0071,-0.0085,-0.0141,-0.015,-0.0263,-0.0246,-0.0257,-0.0262,-0.0366,-0.0369,-0.0371,-0.0329,-0.0329,-0.033,0,0,0,0,0,0,0.0167,0.0123,0.0104,0.0082,0.0048,0.0,-0.0022,-0.0053,-0.0108,-0.0122,-0.0168,-0.0183,-0.0235,-0.0262,-0.0242,-0.0311,-0.0315,-0.032,-0.0279,-0.028,-0.0281,-0.0248,-0.025,0,0,0,0,0,0.0169,0.015,0.0109,0.0089,0.0073,0.0022,-0.0003,-0.0032,-0.0081,-0.0107,-0.0152,-0.0206,-0.0252,-0.0278,-0.032,-0.0357,-0.0377,-0.037,-0.037,-0.037,-0.0354,-0.0402,-0.0404,-0.0382,-0.0382,-0.0382,0,0,0.0174,0.0147,0.0135,0.0093,0.0061,0.0043,0.0005,-0.0031,-0.005,-0.011,-0.0158,-0.021,-0.0265,-0.0308,-0.0333,-0.0332,-0.0389,-0.0374,-0.0373,-0.0357,-0.0405,-0.0407,-0.0408,-0.0384,-0.0384,-0.0383,0,0,0.0183,0.0151,0.0141,0.0117,0.0071,0.0045,0.0033,-0.0021,-0.0052,-0.01,-0.0152,-0.0207,-0.0275,-0.0312,-0.0339,-0.0369,-0.0391,-0.039,-0.036,-0.0407,-0.0408,-0.041,-0.0437,-0.0441,-0.0387,-0.0387,-0.0387,0,0.0186,0.0171,0.0133,0.012,0.0101,0.0048,0.0038,0.0005,-0.0063,-0.0086,-0.011,-0.0222,-0.027,-0.032,-0.0333,-0.0365,-0.0393,-0.0348,-0.0404,-0.0406,-0.0408,-0.0436,-0.0441,-0.0385,-0.0385,-0.0385,-0.0385,0,0.0193,0.0177,0.0169,0.0139,0.0117,0.0096,0.0057,0.0025,-0.0019,-0.0053,-0.0119,-0.0189,-0.0253,-0.028,-0.0315,-0.0358,-0.0373,-0.0398,-0.0392,-0.0407,-0.0436,-0.0442,-0.0382,-0.0383,-0.0384,-0.0384,0,0,0.0193,0.0178,0.017,0.0165,0.0123,0.0105,0.0083,0.0045,0.0024,-0.0039,-0.0069,-0.0154,-0.0197,-0.0232,-0.0288,-0.0326,-0.0369,-0.0364,-0.0367,-0.0371,-0.0464,-0.0395,-0.0396,-0.0408,-0.0409,-0.041,-0.0476,0,0.0201,0.0198,0.0184,0.0174,0.0166,0.0129,0.0115,0.0075,0.0033,-0.0006,-0.0075,-0.013,-0.0177,-0.0216,-0.026,-0.0346,-0.0384,-0.0348,-0.0466,-0.0469,-0.039,-0.04,-0.0344,-0.0391,-0.0482,-0.0483,-0.0484,0,0.0195,0.0197,0.0194,0.0192,0.0184,0.0171,0.0134,0.0117,0.0064,0.0032,-0.0024,-0.008,-0.015,-0.0189,-0.0314,-0.0292,-0.037,-0.0429,-0.0434,-0.0383,-0.0411,-0.0395,-0.0399,-0.0494,-0.0493,-0.0493,-0.0492,0,0.0192,0.0196,0.0195,0.019,0.0181,0.0168,0.0157,0.0116,0.0103,0.0048,0.0031,-0.0054,-0.0105,-0.0205,-0.0321,-0.0329,-0.0447,-0.0479,-0.0487,-0.0483,-0.0462,-0.0453,-0.0563,-0.0563,-0.0563,-0.0563,-0.0563,0,0.019,0.0185,0.0193,0.0186,0.0184,0.0176,0.016,0.0139,0.0116,0.0107,0.0044,0.0024,-0.0115,-0.0196,-0.0304,-0.0397,-0.044,-0.0469,-0.0493,-0.0445,-0.0435,-0.0547,-0.0544,-0.0566,-0.0565,-0.0565,-0.0564,0,0.0168,0.0174,0.0171,0.0174,0.0174,0.0163,0.0164,0.0163,0.0143,0.0131,0.0116,0.0063,-0.0025,-0.015,-0.0308,-0.0365,-0.0471,-0.0501,-0.0417,-0.0427,-0.048,-0.0475,-0.0507,-0.0505,-0.0503,-0.0502,-0.0501,0,0.0159,0.0154,0.0152,0.0154,0.0147,0.0145,0.015,0.0154,0.0164,0.016,0.0162,0.0095,0.0078,-0.0089,-0.0198,-0.0335,-0.0439,-0.04,-0.0394,-0.0453,-0.0474,-0.0471,-0.0468,-0.0365,-0.0362,-0.0361,-0.0359,0,0.0143,0.0128,0.0129,0.0133,0.0134,0.0154,0.0169,0.019,0.0206,0.0224,0.0248,0.0247,0.0149,0.0053,-0.0107,-0.0189,-0.0362,-0.0364,-0.0476,-0.0365,-0.0318,-0.0338,-0.0341,-0.0344,-0.0345,-0.0346,-0.0347,-0.0348,0.0121,0.0116,0.0116,0.012,0.0134,0.0173,0.0202,0.0246,0.0295,0.0367,0.0358,0.0357,0.0217,0.0065,-0.0057,-0.0185,-0.0194,-0.0292,-0.0299,-0.0308,-0.0256,-0.0207,-0.0202,-0.0203,-0.0203,-0.0204,-0.0204,0,0.0108,0.0108,0.0116,0.0135,0.0166,0.0169,0.023,0.0293,0.0379,0.0425,0.0496,0.0356,0.029,0.0092,-0.0041,-0.0115,-0.0123,-0.0188,-0.022,-0.0232,-0.0244,-0.0192,-0.012,-0.012,-0.0121,-0.0121,0,0,0.0102,0.0107,0.0123,0.0172,0.0188,0.0248,0.0292,0.0393,0.0441,0.0493,0.0469,0.0538,0.0279,0.0153,0.0046,-0.0054,-0.0116,-0.0047,-0.0094,-0.0124,-0.0135,-0.0269,-0.0197,0,0,0,0,0]}],[{"header":{"parameterUnit":"m.s-1","parameterCategory":2,"la1":30.2991,"la2":30.254,"lo1":-89.0895,"lo2":-89.0444,"dy":0.0017,"dx":0.0017,"nx":28,"ny":28,"refTime":"2024-07-11T21:00:00:Z","depth":"4","parameterNumber":2,"parameterNumberName":"U-component_of_CURRENTS"},"data":[0,0,0,0,0,0,0,0,0,0,0,0,0,0,0,0,0,0,0,0,0,0,0,0,0,0,0,0,0,0,0,0,0,0,0,0,0,0,0,0,0,0,0,0,0,0,0,0,0,0,0,0,0,0,0,0,0,0,-0.0354,-0.0355,0,-0.0375,-0.0375,-0.0375,-0.04,-0.04,-0.0401,-0.0401,-0.0488,-0.049,-0.0492,0,0,0,0,0,0,0,0,0,0,0,0,0,-0.0322,-0.0323,-0.0354,-0.0355,-0.0355,-0.0375,-0.0375,-0.0375,-0.04,-0.04,-0.0401,-0.0401,-0.0488,-0.049,-0.0492,0,0,0,0,0,0,0,0,0,0,0,0,0,-0.0338,-0.0323,-0.0354,-0.0371,-0.0373,-0.0375,-0.0375,-0.0375,-0.04,-0.04,-0.0401,-0.0402,-0.0487,-0.049,-0.0492,-0.0494,0,0,-0.0501,-0.0502,0,0,0,0,0,0,0,0,-0.0337,-0.0339,-0.0368,-0.037,-0.0372,-0.0387,-0.0396,-0.0419,-0.0399,-0.0388,-0.0401,-0.0402,-0.0461,-0.0466,-0.0465,-0.0498,-0.0502,-0.0501,-0.0503,-0.0504,-0.0505,0,0,0,0,0,0,0,-0.0336,-0.0338,-0.0361,-0.0368,-0.0371,-0.0373,-0.0375,-0.04,-0.042,-0.0389,-0.0391,-0.0395,-0.0462,-0.0462,-0.0467,-0.0503,-0.0501,-0.0503,-0.0505,-0.0506,-0.0632,-0.0634,0,0,0,0,0,0,-0.0336,-0.0337,-0.0361,-0.0362,-0.0357,-0.0373,-0.0376,-0.038,-0.0418,-0.0425,-0.0395,-0.0396,-0.0457,-0.0464,-0.0471,-0.0532,-0.0504,-0.0506,-0.0508,-0.0631,-0.0633,-0.0634,0,0,0,0,0,0,-0.0335,-0.0338,-0.036,-0.0351,-0.0354,-0.0373,-0.0377,-0.038,-0.0403,-0.0422,-0.043,-0.0417,-0.0458,-0.0467,-0.0516,-0.0534,-0.0508,-0.051,-0.0629,-0.0631,-0.0634,-0.0619,0,0,0,0,0,0,-0.0334,-0.0337,-0.035,-0.0351,-0.0355,-0.0374,-0.0376,-0.038,-0.0403,-0.0406,-0.0443,-0.0451,-0.0459,-0.0512,-0.0519,-0.0537,-0.0512,-0.0626,-0.063,-0.0633,-0.0618,-0.0621,-0.0624,0,0,0,0,0,-0.0333,-0.0346,-0.0351,-0.0354,-0.0369,-0.0374,-0.0377,-0.0391,-0.0404,-0.0414,-0.0446,-0.0451,-0.0537,-0.0515,-0.0523,-0.0543,-0.0625,-0.0629,-0.0632,-0.0616,-0.062,-0.0624,0,0,0,0,0,0,-0.0341,-0.0349,-0.0355,-0.0371,-0.0378,-0.0379,-0.0396,-0.0403,-0.0434,-0.045,-0.0467,-0.0476,-0.0528,-0.0544,-0.0519,-0.0593,-0.0584,-0.059,-0.057,-0.0574,-0.0577,-0.0556,-0.0515,0,0,0,0,0,-0.0348,-0.036,-0.0364,-0.038,-0.0387,-0.0395,-0.0405,-0.0414,-0.0435,-0.045,-0.0473,-0.0511,-0.0546,-0.0566,-0.0599,-0.0634,-0.063,-0.0657,-0.066,-0.0662,-0.0654,-0.0661,-0.0663,-0.0647,-0.0647,-0.0647,0,0,-0.0355,-0.0363,-0.0371,-0.0383,-0.0393,-0.0402,-0.0403,-0.0425,-0.0441,-0.0456,-0.0497,-0.0525,-0.0561,-0.06,-0.0625,-0.0617,-0.0667,-0.0667,-0.0668,-0.0659,-0.0665,-0.0666,-0.0667,-0.0649,-0.0649,-0.0649,0,0,-0.0368,-0.0385,-0.0396,-0.0404,-0.0423,-0.0426,-0.0437,-0.0451,-0.0469,-0.0502,-0.0526,-0.0566,-0.061,-0.0636,-0.0655,-0.07,-0.0687,-0.0716,-0.0708,-0.0715,-0.0715,-0.0715,-0.0711,-0.0711,-0.0712,-0.0712,-0.0712,0,-0.038,-0.039,-0.0401,-0.0412,-0.0423,-0.0438,-0.0451,-0.0467,-0.0497,-0.0514,-0.0521,-0.0594,-0.0626,-0.0672,-0.0682,-0.0705,-0.0695,-0.0683,-0.0715,-0.0715,-0.0715,-0.0711,-0.0711,-0.0712,-0.0712,-0.0712,-0.0712,0,-0.0391,-0.0407,-0.0417,-0.0433,-0.0447,-0.0462,-0.0481,-0.0505,-0.0527,-0.0538,-0.0591,-0.0627,-0.0661,-0.0687,-0.0692,-0.0721,-0.0709,-0.0716,-0.0693,-0.0715,-0.0711,-0.0711,-0.0712,-0.0712,-0.0712,-0.0712,0,0,-0.0398,-0.0419,-0.0425,-0.0433,-0.046,-0.0468,-0.0502,-0.0526,-0.0545,-0.058,-0.0601,-0.0662,-0.0668,-0.0691,-0.0713,-0.072,-0.0717,-0.0708,-0.0708,-0.0682,-0.0713,-0.061,-0.06,-0.0715,-0.0715,-0.0715,-0.0706,0,-0.0404,-0.0419,-0.0433,-0.0455,-0.0463,-0.0489,-0.0512,-0.0541,-0.0564,-0.0587,-0.0631,-0.0658,-0.0674,-0.0682,-0.0695,-0.0713,-0.0716,-0.0717,-0.0714,-0.0714,-0.0602,-0.0597,-0.0716,-0.0706,-0.0706,-0.0706,-0.0706,0,-0.0409,-0.0416,-0.0434,-0.0457,-0.0465,-0.0481,-0.0515,-0.0537,-0.0576,-0.0592,-0.0621,-0.0639,-0.0668,-0.0672,-0.07,-0.0691,-0.0695,-0.0708,-0.0708,-0.0612,-0.0611,-0.0684,-0.0706,-0.0706,-0.0706,-0.0706,-0.0706,0,-0.0397,-0.0419,-0.0431,-0.044,-0.0468,-0.0486,-0.0502,-0.0539,-0.0556,-0.0582,-0.0585,-0.0625,-0.0634,-0.0653,-0.0661,-0.0674,-0.0674,-0.0704,-0.0622,-0.0616,-0.0716,-0.0716,-0.0716,-0.0716,-0.0716,-0.0716,-0.0716,0,-0.0387,-0.0406,-0.0424,-0.0432,-0.0443,-0.0472,-0.0491,-0.051,-0.0539,-0.0548,-0.0576,-0.0572,-0.0622,-0.0626,-0.0646,-0.0611,-0.0661,-0.0606,-0.06,-0.0713,-0.0713,-0.0716,-0.0716,-0.0715,-0.0715,-0.0716,-0.0716,0,-0.038,-0.0393,-0.0409,-0.0434,-0.0437,-0.0446,-0.0469,-0.0478,-0.0505,-0.0512,-0.0512,-0.0528,-0.0503,-0.0541,-0.0562,-0.0571,-0.0568,-0.0547,-0.0644,-0.0646,-0.0514,-0.0515,-0.0463,-0.0459,-0.0455,-0.0453,-0.045,0,-0.0374,-0.0383,-0.0403,-0.0396,-0.0408,-0.0418,-0.0422,-0.0453,-0.0457,-0.0472,-0.0464,-0.0442,-0.0444,-0.039,-0.0434,-0.0445,-0.0451,-0.0465,-0.0508,-0.0486,-0.0486,-0.0491,-0.0496,-0.0445,-0.0444,-0.0444,-0.0443,0,-0.0369,-0.0388,-0.0396,-0.0375,-0.0373,-0.0367,-0.0373,-0.0356,-0.0386,-0.0431,-0.0381,-0.0361,-0.0322,-0.0317,-0.0309,-0.0333,-0.0467,-0.0432,-0.044,-0.0481,-0.0464,-0.0469,-0.0477,-0.0431,-0.0433,-0.0434,-0.0435,0,-0.0374,-0.0368,-0.0371,-0.0353,-0.0336,-0.0295,-0.0304,-0.0287,-0.0289,-0.0313,-0.0288,-0.0273,-0.0294,-0.0255,-0.0255,-0.0247,-0.0265,-0.0303,-0.0319,-0.0332,-0.0293,-0.0253,-0.0134,0,0,0,0,0,-0.0359,-0.0351,-0.0339,-0.03,-0.0278,-0.0269,-0.0262,-0.0274,-0.0296,-0.0245,-0.0266,-0.0223,-0.0188,-0.0179,-0.0145,-0.0201,-0.0269,-0.0163,-0.0322,-0.0369,-0.0382,-0.0348,0,0,0,0,0,0,-0.0344,-0.0344,-0.0335,-0.0262,-0.0221,-0.019,-0.0174,-0.019,-0.016,-0.019,-0.0155,-0.0219,-0.0171,-0.0197,-0.0142,-0.0146,-0.0243,-0.0175,-0.0175,-0.0361,-0.0373,-0.0384,-0.0354,0,0,0,0,0]},{"header":{"parameterUnit":"m.s-1","parameterCategory":2,"la1":30.2991,"la2":30.254,"lo1":-89.0895,"lo2":-89.0444,"dy":0.0017,"dx":0.0017,"nx":28,"ny":28,"refTime":"2024-07-11T21:00:00:Z","depth":"4","parameterNumber":3,"parameterNumberName":"V-component_of_CURRENTS"},"data":[0,0,0,0,0,0,0,0,0,0,0,0,0,0,0,0,0,0,0,0,0,0,0,0,0,0,0,0,0,0,0,0,0,0,0,0,0,0,0,0,0,0,0,0,0,0,0,0,0,0,0,0,0,0,0,0,0,0,-0.0121,-0.0121,0,-0.011,-0.011,-0.011,-0.0093,-0.0092,-0.0092,-0.0092,-0.0065,-0.0065,-0.0064,0,0,0,0,0,0,0,0,0,0,0,0,0,-0.0121,-0.0121,-0.0121,-0.0121,-0.0121,-0.011,-0.011,-0.011,-0.0093,-0.0092,-0.0092,-0.0091,-0.0065,-0.0065,-0.0064,0,0,0,0,0,0,0,0,0,0,0,0,0,-0.0117,-0.0121,-0.0121,-0.0111,-0.011,-0.011,-0.011,-0.011,-0.0093,-0.0092,-0.0092,-0.0091,-0.0065,-0.0065,-0.0064,-0.0071,0,0,-0.0063,-0.0062,0,0,0,0,0,0,0,0,-0.0117,-0.0117,-0.0112,-0.0111,-0.011,-0.0102,-0.01,-0.0096,-0.0093,-0.01,-0.0092,-0.0091,-0.0076,-0.0075,-0.0075,-0.007,-0.0069,-0.0063,-0.0062,-0.0062,-0.0062,0,0,0,0,0,0,0,-0.0117,-0.0117,-0.0117,-0.0112,-0.0111,-0.0104,-0.0103,-0.01,-0.0091,-0.0099,-0.0098,-0.0096,-0.0075,-0.0075,-0.0074,-0.0069,-0.0063,-0.0062,-0.0062,-0.0061,-0.0035,-0.0035,0,0,0,0,0,0,-0.0119,-0.0118,-0.0118,-0.0117,-0.0112,-0.0105,-0.0104,-0.0105,-0.0091,-0.0089,-0.0096,-0.0095,-0.0076,-0.0074,-0.0073,-0.0054,-0.0062,-0.0061,-0.0061,-0.0035,-0.0035,-0.0034,0,0,0,0,0,0,-0.0119,-0.0119,-0.0118,-0.0116,-0.0116,-0.0105,-0.0108,-0.0106,-0.0094,-0.0089,-0.0086,-0.0085,-0.0076,-0.0073,-0.0064,-0.0054,-0.0061,-0.0061,-0.0036,-0.0035,-0.0035,-0.0034,0,0,0,0,0,0,-0.0119,-0.0119,-0.012,-0.0117,-0.0116,-0.0116,-0.0108,-0.0106,-0.0094,-0.0092,-0.0079,-0.0077,-0.0075,-0.0065,-0.0063,-0.0054,-0.006,-0.0036,-0.0035,-0.0035,-0.0035,-0.0034,-0.0033,0,0,0,0,0,-0.0119,-0.012,-0.012,-0.012,-0.0117,-0.0116,-0.0115,-0.0106,-0.0094,-0.0092,-0.0082,-0.0077,-0.0059,-0.0064,-0.0063,-0.0052,-0.0036,-0.0036,-0.0035,-0.0035,-0.0034,-0.0033,0,0,0,0,0,0,-0.0114,-0.0118,-0.0118,-0.0118,-0.0117,-0.0112,-0.0106,-0.01,-0.0091,-0.0083,-0.0077,-0.0074,-0.0062,-0.0057,-0.0063,-0.0042,-0.0045,-0.0044,-0.0046,-0.0045,-0.0044,-0.0053,-0.006,0,0,0,0,0,-0.0115,-0.012,-0.012,-0.012,-0.0117,-0.011,-0.0106,-0.01,-0.0092,-0.0086,-0.0077,-0.0065,-0.006,-0.0052,-0.0047,-0.0037,-0.0031,-0.0028,-0.0027,-0.0026,-0.0032,0.0001,0.0004,-0.0032,-0.0032,-0.0032,0,0,-0.0114,-0.0116,-0.0118,-0.012,-0.0114,-0.0121,-0.0106,-0.0096,-0.0103,-0.0086,-0.0082,-0.0064,-0.0057,-0.0048,-0.0041,-0.004,-0.0016,-0.0025,-0.0025,-0.0031,0.0002,0.0005,0.0008,-0.0031,-0.0031,-0.0031,0,0,-0.0114,-0.0112,-0.0117,-0.012,-0.0115,-0.0116,-0.0112,-0.0102,-0.0097,-0.0092,-0.008,-0.006,-0.0047,-0.0043,-0.004,-0.0032,-0.0014,-0.0017,-0.0017,0.0015,0.0018,0.0021,0.0019,0.0022,-0.0013,-0.0013,-0.0013,0,-0.0109,-0.0121,-0.0117,-0.0124,-0.013,-0.0115,-0.0125,-0.0123,-0.0111,-0.0109,-0.009,-0.0063,-0.0052,-0.0048,-0.0036,-0.0031,-0.0012,-0.0022,0.0016,0.0019,0.0022,0.002,0.0023,-0.0013,-0.0013,-0.0013,-0.0013,0,-0.0118,-0.0129,-0.0128,-0.0142,-0.0148,-0.0148,-0.0152,-0.0147,-0.0132,-0.0129,-0.0109,-0.0084,-0.0064,-0.0052,-0.0039,-0.001,-0.0005,0.0011,0.0013,0.0026,0.0022,0.0025,-0.0013,-0.0013,-0.0013,-0.0013,0,0,-0.0106,-0.0131,-0.0131,-0.0148,-0.0157,-0.0164,-0.0176,-0.0185,-0.0188,-0.0159,-0.0157,-0.0125,-0.0087,-0.008,-0.005,-0.0018,0.0019,0.0017,0.0018,0.0011,0.0079,0.0004,0.0,0.006,0.0061,0.0062,0.0062,0,-0.0113,-0.0137,-0.0149,-0.0178,-0.0193,-0.0197,-0.0213,-0.0219,-0.0209,-0.0202,-0.0167,-0.0142,-0.0106,-0.0071,-0.0038,0.0008,0.0031,0.0016,0.0069,0.0069,-0.0,0.0002,0.0065,0.0065,0.0065,0.0066,0.0066,0,-0.0119,-0.0139,-0.0165,-0.0206,-0.0211,-0.0223,-0.0244,-0.0253,-0.0247,-0.0231,-0.0197,-0.0164,-0.0117,-0.0077,-0.0005,-0.0005,0.0038,0.0068,0.007,0.0001,0.0001,0.0053,0.0072,0.0072,0.0071,0.0071,0.0071,0,-0.0118,-0.0153,-0.0178,-0.019,-0.0226,-0.0235,-0.0244,-0.0252,-0.0257,-0.0229,-0.0215,-0.0168,-0.0124,-0.0061,-0.0002,0.0021,0.0062,0.0096,0.0055,0.0049,0.0117,0.0114,0.0143,0.0143,0.0143,0.0143,0.0143,0,-0.0125,-0.0148,-0.0174,-0.0189,-0.0216,-0.0232,-0.0247,-0.025,-0.0246,-0.0251,-0.0208,-0.0199,-0.0105,-0.0077,-0.0018,0.0008,0.005,0.0044,0.0047,0.0114,0.0112,0.0118,0.0116,0.0143,0.0143,0.0143,0.0143,0,-0.0122,-0.0141,-0.0174,-0.0206,-0.0215,-0.0225,-0.0245,-0.0257,-0.0242,-0.0244,-0.0224,-0.0202,-0.0167,-0.0122,-0.0042,-0.0022,0.0014,0.0012,0.0043,0.0049,-0.0014,-0.0017,-0.0022,-0.0024,-0.0027,-0.0028,-0.003,0,-0.0124,-0.0137,-0.0177,-0.0191,-0.0202,-0.0218,-0.0235,-0.0243,-0.0256,-0.0256,-0.0261,-0.0236,-0.022,-0.018,-0.0132,-0.0076,-0.0059,-0.0047,0.0006,-0.0034,-0.0029,-0.0029,-0.0029,-0.0033,-0.0034,-0.0035,-0.0035,0,-0.0128,-0.0137,-0.0164,-0.0186,-0.0205,-0.0241,-0.026,-0.0261,-0.0273,-0.0272,-0.0273,-0.0255,-0.025,-0.0208,-0.0185,-0.0136,-0.0055,-0.0068,-0.0062,-0.0012,-0.0048,-0.0041,-0.0038,-0.0043,-0.0042,-0.0041,-0.004,0,-0.0127,-0.0143,-0.0167,-0.0183,-0.0212,-0.0243,-0.0259,-0.0277,-0.0287,-0.028,-0.0292,-0.0272,-0.0261,-0.0244,-0.0223,-0.0195,-0.0164,-0.0123,-0.0113,-0.0104,-0.0133,-0.019,-0.0234,0,0,0,0,0,-0.0121,-0.0136,-0.0162,-0.0195,-0.0221,-0.0238,-0.0274,-0.0289,-0.0297,-0.0295,-0.0286,-0.0281,-0.026,-0.0262,-0.0243,-0.0262,-0.0167,-0.024,-0.0116,-0.0085,-0.0076,-0.0103,0,0,0,0,0,0,-0.0124,-0.0144,-0.0162,-0.019,-0.0205,-0.0251,-0.0266,-0.0282,-0.0283,-0.028,-0.0269,-0.0274,-0.0256,-0.0256,-0.0236,-0.0236,-0.0155,-0.0236,-0.0236,-0.009,-0.0082,-0.0075,-0.0099,0,0,0,0,0]}]]